Tracking 19794 objects as of 21-Jul-2019
HD Live streaming from Space Station
objects crossing your sky now

FENGYUN 1C DEB

Track FENGYUN 1C DEB now!
10-day predictions


NORAD ID: 32429
Int'l Code: 1999-025DAR
Perigee: 807.5 km
Apogee: 904.5 km
Inclination: 99.1 °
Period: 101.9 minutes
Semi major axis: 7227 km
RCS: 0.0038 m2 (small)
Launch date: May 10, 1999
Source: People's Republic of China (PRC)
Launch site: Taiyaun Space Center, China (TSC)

Note: This is SATELLITE DEBRIS
aabbcc
Your satellite tracking list
Your tracking list is empty




NASA's NSSDC Master Catalog

Two Line Element Set (TLE):
1 32429U 99025DAR 19166.41732000  .00000984  00000-0  54011-3 0  9990
2 32429  99.0967 243.9781 0067062 192.2076 167.7474 14.13073038617262
Source of the keplerian elements: AFSPC